SCP
0 0 0 0 0 0 0 0 0 0 0 0 0 0 0 0 0 0 0 0 0 0 0 0 0 0 0 0 0 0 0 0 0 0 0 0 0 0 0 0 0 0 0
0 0 0 0 0 0 0 0 0 0 0 0 0 0 0 0 0 0 0 0 0 0 0 0 0 0 0 0 0 0 0 0 0 0 0 0 0 0 0 0 0 0 0
0 0 0 0 0 0 0 0 0 0 0 0 0 0 0 0 0 0 0 0 0 0 0 0 0 0 0 0 0 0 0 0 0 0 0 0 0 0 0 0 0 0 0
0 0 0 0 0 0 0 0 0 0 0 0 0 0 0 0 0 0 0 0 0 0 0 0 0 0 0 0 0 0 0 0 0 0 0 0 0 0 0 0 0 0 0
0 0 0 0 0 0 0 0 0 0 0 0 0 0 0 0 0 0 0 0 0 0 0 0 0 0 0 0 0 0 0 0 0 0 0 0 0 0 0 0 0 0 0
0 0 0 0 0 0 0 0 0 0 0 0 0 0 0 0 0 0 0 0 0 0 0 0 0 0 0 0 0 0 0 0 0 0 0 0 0 0 0 0 0 0 0
0 0 0 0 0 0 0 0 0 0 0 0 0 0 0 0 0 0 0 0 0 0 0 0 0 0 0 0 0 0 0 0 0 0 0 0 0 0 0 0 0 0 0
0 0 0 0 0 0 0 0 0 0 0 0 0 0 0 0 0 0 0 0 0 0 0 0 0 0 0 0 0 0 0 0 0 0 0 0 0 0 0 0 0 0 0
0 0 0 0 0 0 0 0 0 0 0 0 0 0 0 0 0 0 0 0 0 0 0 0 0 0 0 0 0 0 0 0 0 0 0 0 0 0 0 0 0 0 0
0 0 0 0 0 0 0 0 0 0 0 0 0 0 0 0 0 0 0 0 0 0 0 0 0 0 0 0 0 0 0 0 0 0 0 0 0 0 0 0 0 0 0
0 0 0 0 0 0 0 0 0 0 0 0 0 0 0 0 0 0 0 0 0 0 0 0 0 0 0 0 0 0 0 0 0 0 0 0 0 0 0 0 0 0 0
0 0 0 0 0 0 0 0 0 0 0 0 0 0 0 0 0 0 0 0 0 0 0 0 0 0 0 0 0 0 0 0 0 0 0 0 0 0 0 0 0 0 0
0 0 0 0 0 0 0 0 0 0 0 0 0 0 0 0 0 0 0 0 0 0 0 0 0 0 0 0 0 0 0 0 0 0 0 0 0 0 0 0 0 0 0
0 0 0 0 0 0 0 0 0 0 0 0 0 0 0 0 0 0 0 0 0 0 0 0 0 0 0 0 0 0 0 0 0 0 0 0 0 0 0 0 0 0 0
0 0 0 0 0 0 0 0 0 0 0 0 0 0 0 0 0 0 0 0 0 0 0 0 0 0 0 0 0 0 0 0 0 0 0 0 0 0 0 0 0 0 0
0 0 0 0 0 0 0 0 0 0 0 0 0 0 0 0 0 0 0 0 0 0 0 0 0 0 0 0 0 0 0 0 0 0 0 0 0 0 0 0 0 0 0
0 0 0 0 0 0 0 0 0 0 0 0 0 0 0 0 0 0 0 0 0 0 0 0 0 0 0 0 0 0 0 0 0 0 0 0 0 0 0 0 0 0 0
0 0 0 0 0 0 0 0 0 0 0 0 0 0 0 0 0 0 0 0 0 0 0 0 0 0 0 0 0 0 0 0 0 0 0 0 0 0 0 0 0 0 0
0 0 0 0 0 0 0 0 0 0 0 0 0 0 0 0 0 0 0 0 0 0 0 0 0 0 0 0 0 0 0 0 0 0 0 0 0 0 0 0 0 0 0
0 0 0 0 0 0 0 0 0 0 0 0 0 0 0 0 0 0 0 0 0 0 0 0 0 0 0 0 0 0 0 0 0 0 0 0 0 0 0 0 0 0 0
0 0 0 0 0 0 0 0 0 0 0 0 0 0 0 0 0 0 0 0 0 0 0 0 0 0 0 0 0 0 0 0 0 0 0 0 0 0 0 0 0 0 0
0 0 0 0 0 0 0 0 0 0 0 0 0 0 0 0 0 0 0 0 0 0 0 0 0 0 0 0 0 0 0 0 0 0 0 0 0 0 0 0 0 0 0
0 0 0 0 0 0 0 0 0 0 0 0 0 0 0 0 0 0 0 0 0 0 0 0 0 0 0 0 0 0 0 0 0 0 0 0 0 0 0 0 0 0 0
0 0 0 0 0 0 0 0 0 0 0 0 0 0 0 0 0 0 0 0 0 0 0 0 0 0 0 0 0 0 0 0 0 0 0 0 0 0 0 0 0 0 0
0 0 0 0 0 0 0 0 0 0 0 0 0 0 0 0 0 0 0 0 0 0 0 0 0 0 0 0 0 0 0 0 0 0 0 0 0 0 0 0 0 0 0
0 0 0 0 0 0 0 0 0 0 0 0 0 0 0 0 0 0 0 0 0 0 0 0 0 0 0 0 0 0 0 0 0 0 0 0 0 0 0 0 0 0 0
Wind_Speed
9 11 11 11 12 13 13 13 13 12 13 13 13 13 14 14 14 14 14 14 14 15 15 16 16 16 16 16 16 17 17 17 17 16 16 16 16 16 16 13 13 14 17
12 12 11 11 12 13 13 13 12 12 12 13 13 13 13 13 13 13 13 13 14 15 15 15 15 15 15 15 15 16 16 15 15 13 12 14 15 15 15 15 15 12 16
13 13 13 10 12 12 12 12 12 12 12 12 12 13 13 13 13 13 13 13 13 14 14 14 14 14 14 14 14 15 14 14 13 9 7 11 13 15 15 15 15 15 15
13 12 12 11 11 12 12 12 12 11 12 12 12 12 12 13 12 12 12 12 13 13 13 14 13 14 13 13 13 14 13 13 10 5 8 10 10 13 14 14 14 14 14
12 11 12 10 11 12 12 12 11 11 11 11 11 12 12 12 12 12 11 11 12 12 12 13 13 13 13 13 13 13 12 11 6 7 9 9 10 12 13 13 13 13 13
12 11 12 10 11 12 12 11 11 11 11 11 11 11 11 12 11 11 11 11 11 11 12 12 12 12 12 12 11 11 10 7 5 8 8 8 9 11 12 12 11 11 11
11 10 12 10 10 11 11 11 11 11 10 11 11 11 11 11 11 10 10 10 10 11 11 11 11 11 11 10 10 10 9 5 6 7 7 7 9 10 10 10 10 10 11
11 10 11 10 9 10 10 10 10 10 10 10 11 11 11 10 10 10 9 9 10 10 10 10 9 9 10 9 9 8 7 3 6 6 6 7 8 8 9 9 9 9 9
10 10 10 11 11 9 9 9 9 9 9 9 10 9 9 8 8 8 8 8 9 9 9 9 8 8 8 8 8 7 6 3 4 4 5 5 6 6 7 7 7 7 8
9 10 10 10 10 11 10 9 8 8 8 8 8 8 8 8 7 7 7 7 8 8 8 8 7 7 7 7 7 6 4 1 4 3 3 4 5 5 5 5 5 5 5
9 9 10 10 10 10 9 9 9 8 8 8 8 8 8 7 8 7 7 6 7 7 8 8 7 7 6 6 6 4 3 1 2 2 2 4 3 3 3 3 3 3 3
13 12 10 11 10 10 8 8 8 8 8 8 7 9 7 6 5 5 7 5 6 6 6 7 7 6 4 4 5 4 2 2 1 1 2 3 3 2 1 1 1 1 1
13 13 12 11 11 10 7 7 5 5 6 7 9 8 6 6 5 5 5 5 6 6 6 6 6 4 3 3 3 3 2 2 1 1 1 2 3 3 2 1 1 1 1
14 14 13 12 11 11 9 8 7 6 6 6 8 9 7 5 6 5 4 5 5 4 5 5 4 4 4 4 4 3 3 3 2 2 1 1 4 5 4 4 3 3 3
14 15 14 13 13 11 10 8 8 8 8 8 7 8 9 7 7 6 5 5 6 5 5 5 5 5 5 5 4 5 5 4 4 4 2 3 5 6 6 6 5 5 4
15 15 14 15 14 13 11 10 9 9 8 8 8 10 11 8 7 7 7 6 6 6 6 5 6 5 5 5 5 6 6 5 5 5 4 4 5 7 7 7 7 6 6
15 15 15 15 15 15 14 13 10 9 9 9 9 10 11 10 9 8 7 7 7 6 7 6 6 5 5 5 6 7 6 6 6 6 6 5 4 6 8 8 8 8 7
14 15 15 13 15 16 15 13 10 10 10 9 9 10 13 13 12 9 8 8 8 7 6 6 6 6 6 6 6 6 6 6 7 7 7 6 5 5 6 8 9 8 8
14 15 15 16 16 16 15 12 11 10 11 10 10 10 12 14 13 11 9 8 9 7 7 7 7 7 7 7 6 6 6 6 7 7 8 8 7 7 6 6 7 8 9
13 14 15 15 16 15 12 11 10 11 11 10 10 11 13 12 14 13 10 11 10 8 8 8 9 8 7 6 5 6 7 7 7 7 8 7 7 8 7 7 6 6 8
13 14 15 16 16 13 11 11 11 12 11 11 11 14 15 14 14 14 10 11 11 10 10 11 9 9 8 5 5 5 7 8 8 7 7 7 7 7 7 7 6 5 5
13 14 15 16 15 16 13 12 11 11 10 11 10 13 15 16 15 13 14 12 12 10 12 12 11 8 7 7 6 4 5 5 6 6 6 6 7 6 7 7 7 6 5
12 14 13 15 16 17 16 11 10 9 9 10 12 13 16 17 17 15 16 14 13 12 11 13 13 13 9 8 9 7 5 6 3 4 6 6 6 6 6 6 7 7 6
12 12 13 14 15 15 15 14 16 14 14 15 12 12 14 16 17 17 16 16 14 12 13 13 13 12 12 9 8 9 9 6 5 4 4 5 6 7 7 5 6 7 6
11 10 11 13 13 14 15 17 17 16 15 12 12 14 14 14 17 17 17 16 15 13 14 14 13 14 12 11 9 7 9 9 9 7 7 6 6 7 7 7 6 6 6
9 8 9 11 12 13 15 16 18 19 17 15 15 13 13 11 12 17 16 16 15 14 15 15 14 16 13 14 11 9 8 8 8 9 10 8 7 6 7 6 6 6 6
Wind_Direction
154 151 148 145 139 133 129 125 121 119 119 116 113 111 108 105 103 102 99 97 96 94 91 89 87 84 83 82 81 79 76 74 73 74 75 74 74 74 70 64 69 70 67
147 151 146 146 141 136 133 129 126 124 123 121 119 117 114 111 109 107 104 101 100 98 95 94 92 89 87 86 85 83 80 78 75 74 79 80 74 73 72 66 64 70 69
148 150 149 145 142 139 137 134 131 129 129 126 123 122 119 117 114 112 110 107 104 101 99 98 96 94 91 90 89 87 84 80 76 70 78 81 78 74 73 70 69 69 68
150 152 151 143 145 143 141 139 136 134 133 131 128 127 124 121 119 117 115 111 108 105 104 102 100 98 94 92 91 89 85 80 72 64 74 76 78 74 73 71 68 66 65
153 154 145 146 149 148 146 144 142 139 136 135 133 131 129 126 123 121 119 115 111 109 107 106 104 102 99 95 93 90 87 81 76 76 75 75 77 75 73 72 69 64 62
157 157 150 153 153 152 151 150 148 144 141 139 136 134 132 130 127 125 123 119 116 114 111 109 107 104 102 99 96 93 88 82 92 78 76 74 76 77 75 74 72 68 64
161 161 158 157 156 156 156 155 153 151 147 144 139 137 135 134 133 131 129 126 123 119 116 114 113 110 107 103 100 96 88 72 80 80 74 74 73 76 76 74 72 69 64
164 165 162 157 159 159 159 158 156 156 153 149 144 142 142 141 142 139 137 134 130 126 122 119 118 117 113 108 103 97 84 63 91 81 75 75 69 75 75 74 72 69 65
170 172 171 170 169 163 161 161 159 156 155 153 148 144 141 142 143 142 140 141 139 135 131 127 124 122 120 115 109 100 88 37 85 82 75 70 56 71 77 75 70 70 69
179 181 180 179 179 177 174 167 164 160 157 153 148 143 140 140 141 141 152 145 146 142 140 137 134 130 124 121 118 112 110 184 87 94 81 65 41 62 73 76 71 72 72
190 191 189 187 188 186 185 175 174 167 161 158 157 150 162 173 169 165 161 149 150 148 148 147 141 131 128 127 123 130 180 132 101 84 76 40 21 39 63 77 72 70 70
196 196 196 196 194 192 190 186 190 189 183 188 184 180 188 186 180 178 147 150 146 146 152 151 142 147 180 160 147 180 188 163 183 134 74 15 341 339 14 58 69 57 65
200 199 201 201 199 197 195 195 195 196 195 197 195 192 192 190 183 189 176 168 172 174 177 164 175 188 192 190 190 195 199 214 222 216 132 350 307 291 282 279 269 263 253
205 205 204 203 203 203 202 200 199 199 199 200 198 197 195 196 197 194 196 193 190 192 193 194 197 196 199 201 212 217 218 232 238 246 231 276 283 278 273 271 260 252 256
212 210 207 205 205 204 205 206 205 205 206 205 202 202 205 205 203 200 201 201 202 201 202 204 207 205 211 213 218 226 230 235 241 243 231 223 261 266 267 268 262 256 256
216 213 209 208 208 206 208 209 208 209 208 210 208 208 209 213 208 205 207 207 208 208 210 214 214 216 220 223 226 229 239 240 238 242 248 230 232 249 255 257 257 258 256
218 216 211 210 210 210 212 214 213 211 209 211 212 211 210 213 213 211 211 211 211 209 211 216 219 223 228 227 233 234 239 241 243 244 245 248 240 230 241 247 249 253 252
222 219 215 210 211 212 213 214 215 214 213 214 213 212 213 213 213 213 215 215 210 207 209 212 216 220 225 231 237 235 236 238 242 245 245 242 244 241 230 230 239 243 246
226 222 218 213 214 213 214 215 217 216 217 218 216 216 215 214 213 214 217 217 209 209 212 212 217 221 227 231 238 243 244 243 244 242 243 243 242 241 239 217 222 234 240
230 225 222 218 217 215 212 215 218 220 220 220 220 218 216 215 213 215 218 217 210 211 214 213 217 218 228 232 237 246 249 249 245 243 243 240 237 235 234 231 223 217 225
230 226 223 220 216 211 208 209 212 217 217 219 220 220 218 216 213 213 215 215 212 214 216 215 217 219 221 217 232 250 250 245 243 241 237 236 231 228 226 225 227 226 217
231 228 226 223 218 213 212 211 214 217 221 221 220 222 221 218 216 214 215 215 212 215 218 216 212 215 214 203 214 236 254 239 223 227 229 231 231 224 223 223 222 223 227
235 231 227 225 222 217 215 213 214 217 222 219 220 220 220 218 217 215 217 217 214 213 216 214 211 214 215 208 212 219 232 242 234 212 221 224 221 219 221 220 221 224 226
241 236 233 230 226 221 215 214 212 213 218 221 220 220 219 218 218 218 218 218 217 214 217 215 213 215 218 215 210 224 238 255 243 242 213 217 220 224 223 220 222 222 221
250 242 236 233 229 224 217 217 217 222 226 227 222 224 221 217 218 218 219 219 219 218 219 217 212 214 216 219 211 207 222 234 238 245 249 229 221 225 227 227 227 226 222
259 249 241 237 233 227 221 220 220 223 226 226 223 222 220 218 216 217 218 219 220 220 220 219 217 217 217 220 219 214 210 213 214 224 239 242 241 235 228 227 227 225 221